This demonstration page uses our WeatherBlox Daily Observations layout. Learn more.

Left ArrowRight Arrow

53.62937, 11.41316

Hourly Observations for April 26, 2016

Temp ( °F °C ) Dew Point ( °F °C ) Humidity (%) Winds ( mph kmh ) Pressure ( in mb ) Visibility ( mi km ) Precip ( " mm )
6:20 am 06:20 Mostly Cloudy 37 3 36 2 93 93 SSW 9 15 29.41 996 30 48 N/A
6:50 am 06:50 Mostly Cloudy 37 3 36 2 93 93 SW 12 19 29.41 996 30 48 N/A
7:20 am 07:20 Mostly Cloudy with Light Rain 36 2 34 1 93 93 SW 16 26 29.41 996 30 48 N/A
7:50 am 07:50 Mostly Cloudy with Light Rain 36 2 34 1 93 93 SW 14 22 29.41 996 4 6 N/A
8:20 am 08:20 Mostly Cloudy with Light Rain 36 2 34 1 93 93 SW 9 15 29.44 997 6 9 N/A
8:50 am 08:50 Mostly Cloudy 37 3 34 1 87 87 SW 10 17 29.44 997 30 48 N/A
9:20 am 09:20 Partly Cloudy 39 4 34 1 81 81 SW 12 19 29.44 997 30 48 N/A
9:50 am 09:50 Partly Cloudy 39 4 32 0 75 75 SSW 14 22 29.44 997 30 48 N/A
10:20 am 10:20 Partly Cloudy 41 5 34 1 76 76 SSW 14 22 29.44 997 30 48 N/A
10:50 am 10:50 Mostly Cloudy 36 2 32 0 87 87 SW 16 26 29.44 997 30 48 N/A
11:20 am 11:20 Mostly Cloudy 43 6 32 0 66 66 SW 15 24 29.44 997 30 48 N/A
11:50 am 11:50 Mostly Cloudy 41 5 30 -1 66 66 SW 16 26 29.44 997 30 48 N/A
12:20 pm 12:20 Partly Cloudy 43 6 28 -2 57 57 SW 13 20 29.44 997 30 48 N/A
12:50 pm 12:50 Mostly Cloudy 43 6 30 -1 61 61 SSW 12 19 29.44 997 30 48 N/A
1:20 pm 13:20 Mostly Cloudy 45 7 30 -1 57 57 SSW 9 15 29.44 997 30 48 N/A
1:50 pm 13:50 Mostly Cloudy 45 7 30 -1 57 57 S 8 13 29.44 997 30 48 N/A
2:20 pm 14:20 Partly Cloudy 46 8 30 -1 53 53 S 9 15 29.44 997 30 48 N/A
2:50 pm 14:50 Mostly Cloudy 48 9 32 0 54 54 SE 10 17 29.44 997 30 48 N/A
3:20 pm 15:20 Mostly Cloudy 46 8 27 -3 46 46 S 14 22 29.41 996 30 48 N/A
3:50 pm 15:50 Mostly Cloudy 41 5 34 1 76 76 SW 14 22 29.44 997 30 48 N/A
4:20 pm 16:20 Mostly Cloudy 43 6 37 3 81 81 SSE 3 6 29.44 997 30 48 N/A
4:50 pm 16:50 Partly Cloudy 45 7 32 0 61 61 S 12 19 29.44 997 30 48 N/A
5:20 pm 17:20 Partly Cloudy 45 7 32 0 61 61 S 13 20 29.44 997 30 48 N/A
5:50 pm 17:50 Partly Cloudy 45 7 32 0 61 61 S 10 17 29.44 997 30 48 N/A
6:20 pm 18:20 Partly Cloudy 45 7 30 -1 57 57 S 10 17 29.44 997 30 48 N/A
6:50 pm 18:50 Mostly Cloudy 45 7 30 -1 57 57 S 12 19 29.44 997 30 48 N/A

Powered by AerisWeather